timestamp,wind_dir_avg,wind_spd_avg,wind_spd_max_dir,wind_spd_gust,battery_voltage,lat,long
2023-07-05 00:04:01+00:00,315.0,0.01,229.0,0.0,12.57,47.59359,-54.27349
2023-07-05 00:14:00+00:00,315.0,0.01,212.0,0.0,12.41,47.59359,-54.27349
2023-07-05 00:24:00+00:00,315.0,0.01,212.0,0.0,12.41,47.59359,-54.27349
2023-07-05 00:34:00+00:00,315.0,0.01,212.0,0.0,12.41,47.59359,-54.27349
2023-07-05 00:44:00+00:00,217.0,5.1,218.0,5.12,12.41,47.59359,-54.27349
2023-07-05 00:54:00+00:00,208.0,4.77,209.0,4.99,12.41,47.59359,-54.27349
2023-07-05 01:04:00+00:00,315.0,0.01,206.0,0.0,12.41,47.59359,-54.27349
2023-07-05 01:14:01+00:00,315.0,0.01,213.0,0.0,12.41,47.59359,-54.27349
2023-07-05 01:24:01+00:00,215.0,7.24,224.0,8.31,12.41,47.59359,-54.27349
2023-07-05 01:34:01+00:00,218.0,7.48,236.0,9.48,12.41,47.59359,-54.27349
2023-07-05 01:44:01+00:00,214.0,7.68,215.0,7.69,12.41,47.59359,-54.27349
2023-07-05 01:54:01+00:00,315.0,0.01,217.0,0.0,12.41,47.59359,-54.27349
2023-07-05 02:04:01+00:00,211.0,6.79,214.0,7.22,12.41,47.59359,-54.27349
2023-07-05 02:14:00+00:00,315.0,0.01,212.0,0.0,12.33,47.59359,-54.27349
2023-07-05 02:24:00+00:00,315.0,0.01,214.0,0.0,12.33,47.59359,-54.27349
2023-07-05 02:34:00+00:00,315.0,0.01,212.0,0.0,12.33,47.59359,-54.27349
2023-07-05 02:44:00+00:00,205.0,7.01,205.0,7.34,12.33,47.59359,-54.27349
2023-07-05 02:54:00+00:00,217.0,8.63,231.0,11.68,12.33,47.59359,-54.27349
2023-07-05 03:04:00+00:00,213.0,7.44,215.0,8.47,12.33,47.59359,-54.27349
2023-07-05 03:14:00+00:00,216.0,7.17,222.0,8.25,12.33,47.59359,-54.27349
2023-07-05 03:24:00+00:00,217.0,6.14,214.0,7.01,12.33,47.59359,-54.27349
2023-07-05 03:34:00+00:00,215.0,6.26,216.0,6.27,12.33,47.59359,-54.27349
2023-07-05 03:44:00+00:00,212.0,6.43,216.0,6.68,12.33,47.59359,-54.27349
2023-07-05 03:54:00+00:00,201.0,6.18,201.0,6.55,12.33,47.59359,-54.27349
2023-07-05 04:04:00+00:00,210.0,6.88,209.0,8.18,12.33,47.59359,-54.27349
2023-07-05 04:14:00+00:00,214.0,5.92,215.0,6.28,12.33,47.59359,-54.27349
2023-07-05 04:24:00+00:00,215.0,6.47,214.0,6.78,12.33,47.59359,-54.27349
2023-07-05 04:34:00+00:00,315.0,0.01,215.0,0.0,12.33,47.59359,-54.27349
2023-07-05 04:44:00+00:00,315.0,0.01,207.0,0.0,12.33,47.59359,-54.27349
2023-07-05 04:54:00+00:00,215.0,5.59,215.0,6.12,12.33,47.59359,-54.27349
2023-07-05 05:04:00+00:00,315.0,0.01,218.0,0.0,12.33,47.59359,-54.27349
2023-07-05 05:14:00+00:00,315.0,0.01,232.0,0.0,12.33,47.59359,-54.27349
2023-07-05 05:24:00+00:00,216.0,6.07,216.0,6.48,12.33,47.59359,-54.27349
2023-07-05 05:34:00+00:00,216.0,6.59,212.0,7.35,12.33,47.59359,-54.27349
2023-07-05 05:44:00+00:00,315.0,0.01,213.0,0.0,12.33,47.59359,-54.27349
2023-07-05 05:54:00+00:00,315.0,0.01,216.0,0.0,12.33,47.59359,-54.27349
2023-07-05 06:04:00+00:00,202.0,5.7,201.0,6.27,12.33,47.59359,-54.27349
2023-07-05 06:14:00+00:00,315.0,0.01,204.0,0.0,12.25,47.59359,-54.27349
2023-07-05 06:24:00+00:00,315.0,0.01,204.0,0.0,12.25,47.59359,-54.27349
2023-07-05 06:34:00+00:00,315.0,0.01,207.0,0.0,12.25,47.59359,-54.27349
2023-07-05 06:44:00+00:00,213.0,5.11,216.0,5.8,12.25,47.59359,-54.27349
2023-07-05 06:54:00+00:00,315.0,0.01,213.0,0.0,12.25,47.59359,-54.27349
2023-07-05 07:04:00+00:00,315.0,0.01,209.0,0.0,12.25,47.59359,-54.27349
2023-07-05 07:14:00+00:00,205.0,5.24,207.0,5.65,12.25,47.59359,-54.27349
2023-07-05 07:24:00+00:00,209.0,5.35,210.0,5.68,12.25,47.59359,-54.27349
2023-07-05 07:34:00+00:00,201.0,5.81,199.0,6.46,12.25,47.59359,-54.27349
2023-07-05 07:44:00+00:00,201.0,5.59,201.0,5.81,12.25,47.59359,-54.27349
2023-07-05 07:54:00+00:00,198.0,5.92,199.0,6.41,12.25,47.59359,-54.27349
2023-07-05 08:04:00+00:00,198.0,5.76,193.0,7.66,12.25,47.59359,-54.27349
2023-07-05 08:14:01+00:00,315.0,0.01,202.0,0.0,12.25,47.59359,-54.27349
2023-07-05 08:24:01+00:00,209.0,6.36,208.0,6.86,12.25,47.59359,-54.27349
2023-07-05 08:34:01+00:00,201.0,6.05,201.0,6.56,12.25,47.59359,-54.27349
2023-07-05 08:44:01+00:00,201.0,5.44,201.0,6.34,12.25,47.59359,-54.27349
2023-07-05 08:54:01+00:00,194.0,5.1,199.0,5.65,12.25,47.59359,-54.27349
2023-07-05 09:04:01+00:00,196.0,5.11,195.0,5.72,12.25,47.59359,-54.27349
2023-07-05 09:14:00+00:00,204.0,5.24,203.0,5.77,12.17,47.59359,-54.27349
2023-07-05 09:24:00+00:00,315.0,0.01,216.0,0.0,12.17,47.59359,-54.27349
2023-07-05 09:34:00+00:00,315.0,0.01,219.0,0.0,12.17,47.59359,-54.27349
2023-07-05 09:44:00+00:00,211.0,6.15,209.0,6.5,12.17,47.59359,-54.27349
2023-07-05 09:54:00+00:00,315.0,0.01,211.0,0.0,12.17,47.59359,-54.27349
2023-07-05 10:04:00+00:00,315.0,0.01,213.0,0.0,12.17,47.59359,-54.27349
2023-07-05 10:14:00+00:00,315.0,0.01,205.0,0.0,12.41,47.59359,-54.27349
2023-07-05 10:24:00+00:00,213.0,5.79,213.0,5.85,12.41,47.59359,-54.27349
2023-07-05 10:34:00+00:00,214.0,4.49,213.0,4.88,12.41,47.59359,-54.27349
2023-07-05 10:44:00+00:00,209.0,7.27,211.0,7.57,12.41,47.59359,-54.27349
2023-07-05 10:54:00+00:00,213.0,6.33,213.0,6.66,12.41,47.59359,-54.27349
2023-07-05 11:04:00+00:00,214.0,5.46,216.0,5.91,12.41,47.59359,-54.27349
2023-07-05 11:14:01+00:00,209.0,5.13,209.0,5.56,12.97,47.59359,-54.27349
2023-07-05 11:24:01+00:00,204.0,5.19,208.0,5.66,12.97,47.59359,-54.27349
2023-07-05 11:34:01+00:00,315.0,0.01,204.0,0.0,12.97,47.59359,-54.27349
2023-07-05 11:44:01+00:00,315.0,0.01,203.0,0.0,12.97,47.59359,-54.27349
2023-07-05 11:54:01+00:00,315.0,0.01,203.0,0.0,12.97,47.59359,-54.27349
2023-07-05 12:04:01+00:00,315.0,0.01,203.0,0.0,12.97,47.59359,-54.27349
2023-07-05 12:14:01+00:00,315.0,0.01,241.0,0.0,13.6,47.59359,-54.27349
2023-07-05 12:24:01+00:00,351.0,23.8,351.0,23.81,13.6,47.59359,-54.27349
2023-07-05 12:34:01+00:00,315.0,0.01,350.0,0.0,13.6,47.59359,-54.27349
2023-07-05 12:44:01+00:00,209.0,5.87,208.0,6.26,13.6,47.59359,-54.27349
2023-07-05 12:54:01+00:00,205.0,5.79,205.0,6.18,13.6,47.59359,-54.27349
2023-07-05 13:04:01+00:00,209.0,4.43,207.0,4.77,13.6,47.59359,-54.27349
2023-07-05 13:14:00+00:00,194.0,4.94,195.0,5.24,13.6,47.59359,-54.27349
2023-07-05 13:24:00+00:00,198.0,5.44,198.0,5.93,13.6,47.59359,-54.27349
2023-07-05 13:34:00+00:00,202.0,5.46,203.0,6.1,13.6,47.59359,-54.27349
2023-07-05 13:44:00+00:00,201.0,5.59,201.0,6.13,13.6,47.59359,-54.27349
2023-07-05 13:54:00+00:00,210.0,5.77,207.0,6.25,13.6,47.59359,-54.27349
2023-07-05 14:04:00+00:00,208.0,6.03,212.0,6.9,13.6,47.59359,-54.27349
2023-07-05 14:14:00+00:00,204.0,6.28,205.0,6.29,13.53,47.59359,-54.27349
2023-07-05 14:24:00+00:00,315.0,0.01,215.0,0.0,13.53,47.59359,-54.27349
2023-07-05 14:34:00+00:00,315.0,0.01,212.0,0.0,13.53,47.59359,-54.27349
2023-07-05 14:44:00+00:00,207.0,6.87,212.0,7.74,13.53,47.59359,-54.27349
2023-07-05 14:54:00+00:00,208.0,7.6,210.0,8.45,13.53,47.59359,-54.27349
2023-07-05 15:04:00+00:00,203.0,6.19,201.0,7.0,13.53,47.59359,-54.27349
2023-07-05 15:14:00+00:00,197.0,6.69,193.0,7.65,13.84,47.59359,-54.27349
2023-07-05 15:24:00+00:00,213.0,8.19,214.0,8.49,13.84,47.59359,-54.27349
2023-07-05 15:34:00+00:00,206.0,8.03,210.0,8.57,13.84,47.59359,-54.27349
2023-07-05 15:44:00+00:00,201.0,9.0,205.0,9.92,13.84,47.59359,-54.27349
2023-07-05 15:54:00+00:00,199.0,8.16,203.0,9.19,13.84,47.59359,-54.27349
2023-07-05 16:04:00+00:00,212.0,8.75,209.0,9.69,13.84,47.59359,-54.27349
2023-07-05 16:14:00+00:00,211.0,8.95,211.0,9.95,13.76,47.59359,-54.27349
2023-07-05 16:24:00+00:00,210.0,8.77,210.0,9.7,13.76,47.59359,-54.27349
2023-07-05 16:34:00+00:00,206.0,8.3,208.0,8.87,13.76,47.59359,-54.27349
2023-07-05 16:44:00+00:00,210.0,8.21,211.0,8.54,13.76,47.59359,-54.27349
2023-07-05 16:54:00+00:00,206.0,7.58,209.0,8.41,13.76,47.59359,-54.27349
2023-07-05 17:04:00+00:00,198.0,7.28,198.0,8.1,13.76,47.59359,-54.27349
2023-07-05 17:14:00+00:00,198.0,7.61,197.0,8.67,13.68,47.59359,-54.27349
2023-07-05 17:24:00+00:00,202.0,8.43,210.0,9.63,13.68,47.59359,-54.27349
2023-07-05 17:34:00+00:00,315.0,0.01,207.0,0.0,13.68,47.59359,-54.27349
2023-07-05 17:44:00+00:00,207.0,10.47,206.0,11.08,13.68,47.59359,-54.27349
2023-07-05 17:54:00+00:00,203.0,8.25,212.0,9.68,13.68,47.59359,-54.27349
2023-07-05 18:04:00+00:00,197.0,7.55,192.0,8.06,13.68,47.59359,-54.27349
2023-07-05 18:14:00+00:00,193.0,7.39,194.0,7.92,13.68,47.59359,-54.27349
2023-07-05 18:24:00+00:00,197.0,8.1,196.0,8.78,13.68,47.59359,-54.27349
2023-07-05 18:34:00+00:00,205.0,9.18,206.0,9.19,13.68,47.59359,-54.27349
2023-07-05 18:44:00+00:00,315.0,0.01,211.0,0.0,13.68,47.59359,-54.27349
2023-07-05 18:54:00+00:00,315.0,0.01,219.0,0.0,13.68,47.59359,-54.27349
2023-07-05 19:04:00+00:00,223.0,6.71,241.0,9.79,13.68,47.59359,-54.27349
2023-07-05 19:14:00+00:00,217.0,5.99,234.0,8.89,13.6,47.59359,-54.27349
2023-07-05 19:24:00+00:00,213.0,8.74,221.0,9.86,13.6,47.59359,-54.27349
2023-07-05 19:34:00+00:00,209.0,8.46,209.0,8.61,13.6,47.59359,-54.27349
2023-07-05 19:44:00+00:00,208.0,8.3,209.0,8.9,13.6,47.59359,-54.27349
2023-07-05 19:54:00+00:00,206.0,8.36,205.0,9.01,13.6,47.59359,-54.27349
2023-07-05 20:04:00+00:00,202.0,7.19,203.0,8.15,13.6,47.59359,-54.27349
2023-07-05 20:14:00+00:00,197.0,6.75,196.0,7.43,13.68,47.59359,-54.27349
2023-07-05 20:24:00+00:00,202.0,8.06,205.0,8.91,13.68,47.59359,-54.27349
2023-07-05 20:34:00+00:00,207.0,8.46,208.0,9.11,13.68,47.59359,-54.27349
2023-07-05 20:44:00+00:00,210.0,6.13,212.0,6.67,13.68,47.59359,-54.27349
2023-07-05 20:54:00+00:00,214.0,8.49,228.0,11.09,13.68,47.59359,-54.27349
2023-07-05 21:04:00+00:00,211.0,7.6,212.0,8.15,13.68,47.59359,-54.27349
2023-07-05 21:14:01+00:00,211.0,8.54,222.0,10.22,13.53,47.59359,-54.27349
2023-07-05 21:24:01+00:00,209.0,7.31,208.0,7.92,13.53,47.59359,-54.27349
2023-07-05 21:34:01+00:00,199.0,6.94,197.0,7.39,13.53,47.59359,-54.27349
2023-07-05 21:44:01+00:00,203.0,7.85,205.0,8.09,13.53,47.59359,-54.27349
2023-07-05 21:54:01+00:00,204.0,6.32,201.0,7.67,13.53,47.59359,-54.27349
2023-07-05 22:04:01+00:00,208.0,7.88,209.0,8.6,13.53,47.59359,-54.27349
2023-07-05 22:14:00+00:00,209.0,8.99,209.0,10.45,13.44,47.59359,-54.27349
2023-07-05 22:24:00+00:00,213.0,9.28,227.0,11.67,13.44,47.59359,-54.27349
2023-07-05 22:34:00+00:00,211.0,8.19,212.0,8.97,13.44,47.59359,-54.27349
2023-07-05 22:44:00+00:00,214.0,9.11,229.0,11.59,13.44,47.59359,-54.27349
2023-07-05 22:54:00+00:00,209.0,8.36,215.0,9.5,13.44,47.59359,-54.27349
2023-07-05 23:04:00+00:00,211.0,7.29,209.0,8.1,13.44,47.59359,-54.27349
2023-07-05 23:14:00+00:00,208.0,6.61,208.0,7.18,13.13,47.59359,-54.27349
2023-07-05 23:24:00+00:00,210.0,7.76,213.0,8.34,13.13,47.59359,-54.27349
2023-07-05 23:34:00+00:00,204.0,6.58,205.0,7.26,13.13,47.59359,-54.27349
2023-07-05 23:44:00+00:00,207.0,8.64,229.0,11.31,13.13,47.59359,-54.27349
2023-07-05 23:54:00+00:00,210.0,8.71,227.0,11.33,13.13,47.59359,-54.27349
